Regional Weather Roundup
Issued by NWS

Home | Current Version | Previous Version | Graphics & Text | Print | Product List | Glossary On
Versions: 1 2 3 4 5 6 7 8 9 10 11 12 13 14 15 16 17 18 19 20 21 22 23 24 25 26 27 28 29 30 31 32 33 34 35 36 37 38 39 40 41 42 43 44 45 46 47 48 49 50
000
ASUS43 KLOT 010910
RWRIL

ILLINOIS REGIONAL WEATHER ROUNDUP
NATIONAL WEATHER SERVICE CHICAGO/ROMEOVILLE IL
300 AM CST SUN MAR 01 2015

NOTE: "FAIR" INDICATES FEW OR NO CLOUDS BELOW 12,000 FEET WITH NO
SIGNIFICANT WEATHER AND/OR OBSTRUCTIONS TO VISIBILITY.

* THESE STATIONS ARE NOT UNDER NWS QUALITY CONTROL. THEY ALSO MAY NOT
  REPORT WEATHER SUCH AS PRECIPITATION OR FOG.

ILZ001-002-007-009-015-016-024-011000-
NORTHWEST ILLINOIS

CITY           SKY/WX    TMP DP  RH WIND       PRES   REMARKS
MOLINE         MOCLDY     5   0  79 CALM      30.40F
STERLING*      CLOUDY   N/A N/A N/A CALM      30.39F VSB<1/4
SAVANNA*       LGT SNOW  13   9  87 CALM      30.41F
$$

ILZ003-004-008-010-011-017-018-011000-
NORTH CENTRAL ILLINOIS

CITY           SKY/WX    TMP DP  RH WIND       PRES   REMARKS
ROCKFORD       CLOUDY    11   8  88 CALM      30.40F FOG
FREEPORT*      LGT SNOW   9   6  88 CALM      30.40F
ROCHELLE*      FOG        4   1  88 CALM      30.40F VSB 1/4
DE KALB*       FOG        8   5  87 S5        30.38F VSB 1/4 WCI  -1
PERU*          MOCLDY    16  14  91 CALM      30.40F FOG
$$

ILZ005-006-012>014-019>023-011000-
NORTHEAST ILLINOIS

CITY           SKY/WX    TMP DP  RH WIND       PRES   REMARKS
CHICAGO-OHARE  MOCLDY    13   9  84 S3        30.39F FOG
CHICAGO-MIDWAY CLOUDY    20  15  81 CALM      30.40F
AURORA         FOG        6   3  87 CALM      30.40S VSB 1/4
LANSING*       CLOUDY    19  16  87 S3        30.41F
JOLIET*        MOCLDY    17  15  90 CALM      30.41F FOG
WAUKEGAN       PTCLDY     6   5  95 CALM      30.39F FOG
DUPAGE AIRPORT CLOUDY    12   9  87 CALM      30.38F FOG
KANKAKEE*      MIX PCPN  19  17  91 CALM      30.40F
WHEELING       PTCLDY    12   8  84 CALM      30.41F FOG
MORRIS*        MOCLDY    18  17  95 CALM      30.40F
ROMEOVILLE*    MOCLDY    17  15  89 S3        30.39F
NORTHERLY ISL    N/A     20  15  81 S2          N/A
$$

LMZ740>746-011000-
SOUTHERN LAKE MICHIGAN

STATION/POSITION SKY/WX   TEMP    WIND        PRES    VSBY  WAVE
                          AIR SEA DIR/SP/G                  HT/PER
                          (F)     (DEG/KT/KT) (MB)    (MI)  (FT/S)
WAUKEGAN HARBOR            18     220/ 12/ 14   N/A
HARRISON CRIB              20     180/  8/ 10   N/A
BURNHAM HARBOR             20     190/  2/  5   N/A
CALUMET HARBOR             19     160/  2/  4 1028.2
MICHIGAN CITY              18     130/  4/  5   N/A
$$

ILZ025>027-034>036-040-047-049-050-058-095>099-011000-
WEST-CENTRAL ILLINOIS

CITY           SKY/WX    TMP DP  RH WIND       PRES   REMARKS
QUINCY         LGT SNOW  21  18  88 E5        30.36F FOG     WCI  15
GALESBURG*     CLOUDY    19  17  95 CALM      30.37F
MACOMB*        LGT RAIN  20  19  96 CALM      30.39F
JACKSONVILLE*  LGT SNOW  24  21  90 CALM      30.37F
PITTSFIELD*    LGT SNOW  23  20  91 CALM      30.38S
$$

ILZ028>032-037-038-041>044-048-051>054-059>061-011000-
CENTRAL ILLINOIS

CITY           SKY/WX    TMP DP  RH WIND       PRES   REMARKS
PONTIAC        FLURRIES  20  19  94 CALM      30.40F
BLOOMINGTON    LGT SNOW  21  19  93 CALM      30.37F FOG
DECATUR        LGT SNOW  22  20  92 E3        30.37F VSB 1
PEORIA         LGT SNOW  22  18  85 CALM      30.39F FOG
LACON*         CLOUDY    18  15  88 CALM      30.39F
LINCOLN*       LGT SNOW  23  21  92 CALM      30.41F
SPRINGFIELD    LGT SNOW  23  19  85 NE3       30.37F FOG
TAYLORVILLE    LGT SNOW  23  21  93 CALM      30.37F
$$

ILZ033-039-045-046-055>057-062-063-011000-
EAST-CENTRAL ILLINOIS

CITY           SKY/WX    TMP DP  RH WIND       PRES   REMARKS
CHAMPAIGN      LGT SNOW  22  19  89 E5        30.36F VSB 1   WCI  16
DANVILLE*      LGT SNOW  21  19  94 CALM      30.35F VSB 1
RANTOUL*       LGT SNOW  23  21  93 CALM      30.37F
MATTOON        LGT SNOW  24  21  88 CALM      30.35F FOG
PARIS*         LGT SNOW  23  22  96 CALM      30.39F
$$

ILZ079-100>102-011000-
SOUTHWEST ILLINOIS

CITY           SKY/WX    TMP DP  RH WIND       PRES   REMARKS
ALTON          LGT SNOW  25  24  96 CALM      30.37F
BELLEVILLE     LGT SNOW  25  25 100 N2        30.35F FOG
CAHOKIA*       LGT SNOW  26  24  92 CALM      30.37F FOG
SPARTA*        MIX PCPN  27  26  96 CALM      30.36F
$$

ILZ064>066-069>071-074>076-080>082-084>086-088>090-092>094-011000-
SOUTH-CENTRAL ILLINOIS

CITY           SKY/WX    TMP DP  RH WIND       PRES   REMARKS
CARBONDALE     FRZ RAIN  31  25  78 SE6       30.36F WCI  25
CAIRO*         CLOUDY    34  26  74 NE3       30.38F
EFFINGHAM*     LGT SNOW  26  23  89 CALM      30.39F
MARION         MIX PCPN  32  27  80 SE10G16   30.35F WCI  24
MT. VERNON     CLOUDY    28  25  86 CALM      30.36F
CENTRALIA*     LGT SNOW  26  24  92 CALM      30.36F
SALEM*         LGT SNOW  28  26  92 CALM      30.37F
METROPOLIS*    LGT RAIN  33  25  72 NE5       30.36F WCI  28
$$

ILZ067-068-072-073-078-083-087-091-011000-
SOUTHEAST ILLINOIS

CITY           SKY/WX    TMP DP  RH WIND       PRES   REMARKS
LAWRENCEVILLE  MIX PCPN  30  28  92 CALM      30.38F FOG
FLORA*         LGT SNOW  26  26  99 CALM      30.38S
FAIRFIELD*     LGT SNOW  31  29  92 SE3       30.36F
HARRISBURG*    FLURRIES  32  25  77 E5        30.39F WCI  27
ROBINSON*      LGT SNOW  26  26  99 CALM      30.39F VSB 1
CARMI*         LGT SNOW  32  30  92 SE8       30.38F WCI  25
$$

ABBREVIATIONS USED IN REMARKS
   TC - TEMPERATURE IN CELSIUS
  WCI - WIND CHILL INDEX
   HX - HEAT INDEX
  VSB - VISIBILITY
$$




USA.gov is the U.S. government's official web portal to all federal, state and local government web resources and services.